Regional Weather Roundup
Issued by NWS

Home | Current Version | Previous Version | Text Only | Print | Product List | Glossary On
Versions: 1 2 3 4 5 6 7 8 9 10 11 12 13 14 15 16 17 18 19 20 21 22 23 24 25 26 27 28 29 30 31 32 33 34 35 36 37 38 39 40 41 42 43 44 45 46 47 48 49 50
000
ASUS45 KTFX 310810
RWRMT
MONTANA REGIONAL WEATHER ROUNDUP
NATIONAL WEATHER SERVICE GREAT FALLS MT
200 AM MDT SUN JUL 31 2016

NOTE: "FAIR" INDICATES FEW OR NO CLOUDS BELOW 12000 FEET WITH NO
SIGNIFICANT WEATHER AND/OR OBSTRUCTIONS TO VISIBILITY.

MTZ001>007-043-310900-
WEST OF THE DIVIDE

CITY           SKY/WX    TMP DP  RH WIND       PRES   REMARKS
KALISPELL      CLEAR     60  44  55 SE7       29.73S
MISSOULA       CLEAR     60  42  51 NW7       29.80F
BUTTE          CLEAR     56  38  50 SE7       29.93S
MULLAN PASS    CLEAR     60  29  30 SW8G17    29.93F
DEER LODGE       N/A     64  43  45 W5        29.90S
EUREKA           N/A     64  41  42 CALM      29.69S
HAMILTON         N/A     61  46  59 CALM      29.83S
LIBBY            N/A     64  41  42 SE6       29.70F
PLAINS           N/A     60  45  57 CALM      29.78S
RONAN            N/A     59  45  59 SW2       29.84S
$$

MTZ008-052>055-310900-
SOUTHWEST MONTANA

CITY           SKY/WX    TMP DP  RH WIND       PRES   REMARKS
BOZEMAN        CLEAR     60  49  66 S7        29.84R
DILLON         CLEAR     64  38  38 S8        29.89S
W YELLOWSTONE  CLOUDY    64  41  42 CALM      30.04S
ENNIS          CLEAR     68  39  34 NW7       29.95R
THREE FORKS      N/A     65  19  17 CALM      29.85R
TWIN BRIDGES     N/A     63  41  44 E2        29.88S
$$

MTZ009-010-012-014-046-048-049-054-310900-
EAST SLOPES AND CENTRAL MONTANA

CITY           SKY/WX    TMP DP  RH WIND       PRES   REMARKS
CUT BANK       CLEAR     54  51  90 NW12      29.83R
GREAT FALLS    CLEAR     63  33  32 SW9       29.76S
MALMSTROM AFB  CLEAR     68  36  30 NW13      29.77R
HELENA         CLEAR     75  36  24 SW8       29.82R
CHOTEAU          N/A     61  54  77 N13G21    29.83R
CONRAD           N/A     59  54  83 NW2       29.86R
$$

MTZ011-013-016-021-045-047-050-051-310900-
NORTH CENTRAL MONTANA

CITY           SKY/WX    TMP DP  RH WIND       PRES   REMARKS
HAVRE          CLEAR     65  58  78 SW14      29.64R
N BAR RANCH      N/A     70  43  37 CALM      29.79S
CHINOOK          N/A     66  61  82 E7        29.61F
$$

MTZ017>020-022>027-061-062-310900-
NORTHEAST MONTANA

CITY           SKY/WX    TMP DP  RH WIND       PRES   REMARKS
GLASGOW        CLEAR     67  57  70 SE12      29.63F
JORDAN           N/A     71  55  56 E10       29.65F
SIDNEY         CLOUDY    71  57  61 S21G28    29.66F
WOLF POINT     CLEAR     71  58  63 E6        29.66F
PLENTYWOOD       N/A     66  57  72 E8        29.69F
POPLAR           N/A     72  55  56 S6        29.66S
SCOBEY           N/A     69  52  54 SE8       29.69
$$

MTZ028>42-056>058-310900-
SOUTHCENTRAL AND SOUTHEAST MONTANA

CITY           SKY/WX    TMP DP  RH WIND       PRES   REMARKS
BAKER          CLEAR     69  55  60 SE18      29.75F
BILLINGS       CLEAR     76  47  35 SW14      29.70F
LIVINGSTON     CLEAR     68  43  40 NW9       29.82R
MILES CITY     CLOUDY    76  49  38 SE15      29.68S
EKALAKA          N/A     70  51  50 E16       29.78F
FORSYTH          N/A     75  50  41 SE6       29.65S
LAUREL           N/A     68  49  50 SW2       29.74F
ROUNDUP          N/A     72  45  37 CALM      29.65S
$$

REGIONAL REPORTS...DAKOTAS

CITY           SKY/WX    TMP DP  RH WIND       PRES   REMARKS
WILLISTON      CLOUDY    75  61  61 S10       29.71F
MINOT          CLEAR     67  62  84 SE6       29.75F
DICKINSON      CLEAR     65  60  84 S9        29.75F
BEACH          LGT RAIN  66  64  94 N16       29.84R
CROSBY           N/A     66  64  94 SE8       29.74F
WATFORD CITY     N/A     68  61  77 SW8       29.76R
BISMARCK       PTCLDY    69  64  84 SE9       29.77F
GRAND FORKS    CLEAR     63  58  83 SE7       29.87F
FARGO          PTCLDY    68  57  68 SE12      29.89F
BUFFALO SD       N/A     65  58  78 SE12      29.71F
RAPID CITY     CLOUDY    69  56  62 S8        29.85F
$$

REGIONAL REPORTS...WYOMING/IDAHO/WASHINGTON

CITY           SKY/WX    TMP DP  RH WIND       PRES   REMARKS
GILLETTE       CLOUDY    66  57  72 S13       29.84F
SHERIDAN       CLEAR     69  47  45 VRB3      29.78S
BUFFALO WY     PTCLDY    70  46  42 S9        29.88F
CODY           CLOUDY    68  43  40 S7        29.88F
YELLOWSTONE LA   N/A     55  44  66 CALM      30.15F
IDAHO FALLS    CLEAR     70  47  43 SW9       29.91F
SALMON         CLEAR     66  39  37 CALM      29.83R
BOISE          CLEAR     73  44  35 SW3       29.80R
SPOKANE        MOCLDY    68  38  33 SW20G26   29.72S
$$

REGIONAL REPORTS...ALBERTA

CITY           SKY/WX    TMP DP  RH WIND       PRES   REMARKS
EDMONTON       CLOUDY    55  54  94 W6        29.76F
CALGARY        MOCLDY    54  48  82 W7        29.81F
LETHBRIDGE     CLOUDY    59  54  82 NW17G24   29.83S
MEDICINE HAT   MOCLDY    61  57  88 VRB2      29.73R
WATERTON GATE    N/A     55  52  88 N6          N/A
MILK RIVER       N/A     55  54  94 NW13        N/A
$$

REGIONAL REPORTS...SASKATCHEWAN

CITY           SKY/WX    TMP DP  RH WIND       PRES   REMARKS
SWIFT CURRENT  TSTM      61  61 100 N13G18    29.75R
REGINA         PTCLDY    63  59  88 SE16      29.68F
SASKATOON      TSTM      64  64 100 SW18      29.71R
CYPRESS HILLS    N/A     57  52  82 N7          N/A
ROCKGLEN         N/A     64  57  77 SE14        N/A
$$



USA.gov is the U.S. government's official web portal to all federal, state and local government web resources and services.